Location: Cleveland
(41.4990°N, 81.6960°W)
Time: 23:31:04
(UTC-04:00)

ISS - Pass Details

Date: 03 October 2021
Orbit: 417 x 423 km, 51.6° (Epoch: 20 October)

Event Time Altitude Azimuth Distance (km) Brightness Sun altitude
Rises 20:30:56 0° 305° (NW) 2,364 1.2 -16.9°
Reaches altitude 10° 20:33:02 10° 305° (NW) 1,499 0.0 -17.3°
Maximum altitude 20:36:24 89° 22° (NNE) 423 -3.9 -18.0°
Enters shadow 20:37:00 58° 125° (SE) 492 -3.8 -18.1°
